Location: Peterborough
(44.3091°N, 78.3197°W)
Time: 07:26:27
(UTC-04:00)

Vanguard 2 - Pass Details

Date: 29 March 2023
Orbit: 552 x 2926 km, 32.9° (Epoch: 04 June)

Event Time Altitude Azimuth Distance (km) Brightness Sun altitude
Rises 09:54:23 0° 270° (W) 6,667 11.8 29.5°
Reaches altitude 10° 09:59:26 10° 265° (W) 5,470 11.5 30.3°
Maximum altitude 10:13:20 41° 203° (SSW) 2,786 10.8 32.4°
Drops below altitude 10° 10:22:39 10° 138° (SE) 3,699 12.3 33.8°
Sets 10:25:23 0° 130° (SE) 4,389 12.4 34.2°
